Regional Weather Roundup
Issued by NWS Goodland, KS

Home | Current Version | Previous Version | Graphics & Text | Print | Product List | Glossary On
Versions: 1 2 3 4 5 6 7 8 9 10 11 12 13 14 15 16 17 18 19 20 21 22 23 24 25 26 27 28 29 30 31 32 33 34 35 36 37 38 39 40 41 42 43 44 45 46 47 48 49 50
000
ASUS43 KGLD 162159
RWRGLD

GOODLAND FORECAST AREA HOURLY WEATHER ROUNDUP
NATIONAL WEATHER SERVICE GOODLAND KS
400 PM MDT MON OCT 16 2017

...OFFICIAL OBSERVATIONS...

CITY           SKY/WX    TMP DP  RH WIND       PRES   REMARKS
GOODLAND KS    CLOUDY    78  29  16 S17G29    30.11F
HILL CITY KS   SUNNY     77  32  19 S15G28    30.13F
IMPERIAL NEB   SUNNY     81  15   8 NW6       30.09F
MCCOOK NEB     SUNNY     77  33  20 S15G26    30.09S
AKRON CO       NOT AVBL
BURLINGTON CO  SUNNY     80  21  11 SW6       30.15F
LIMON CO       SUNNY     77   3   5 NW13G20   30.22R
$$

...UNOFFICIAL OBSERVATIONS...

CITY           SKY/WX    TMP DP  RH WIND       PRES   REMARKS
YUMA CO        FAIR      75  12   9 NW10G17   30.15R
$$




USA.gov is the U.S. government's official web portal to all federal, state and local government web resources and services.